Regional Weather Roundup
Issued by NWS Upton, NY

Current Version | Previous Version | Text Only | Print | Product List | Glossary On
Versions: 1 2 3 4 5 6 7 8 9 10 11 12 13 14 15 16 17 18 19 20 21 22 23 24 25 26 27 28 29 30 31 32 33 34 35 36 37 38 39 40 41 42 43 44 45 46 47 48 49 50
000 ASUS41 KOKX 031805 RWROKX REGIONAL WEATHER ROUNDUP NATIONAL WEATHER SERVICE NEW YORK NY 100 PM EST TUE MAR 03 2015 NOTE: "FAIR" INDICATES FEW OR NO CLOUDS BELOW 12,000 FEET WITH NO SIGNIFICANT WEATHER AND/OR OBSTRUCTIONS TO VISIBILITY. NYZ071-072-176-178-NJZ106-104-031900- NEW YORK CITY METRO AREA CITY SKY/WX TMP DP RH WIND PRES REMARKS CENTRAL PARK CLOUDY 30 12 47 VRB3 30.38F LAGUARDIA APRT CLOUDY 29 14 53 S10 30.37F WCI 20 KENNEDY INTL CLOUDY 30 13 49 S10 30.38F WCI 21 NEWARK/LIBERTY CLOUDY 31 16 54 SE8 30.37F WCI 23 BRNX BOT. GARD N/A N/A N/A N/A SE6 30.36F TETERBORO CLOUDY 30 14 51 SW12 30.36F WCI 20 $$ NYZ177-179-078>081-031900- LONG ISLAND NEW YORK CITY SKY/WX TMP DP RH WIND PRES REMARKS FARMINGDALE CLOUDY 28 8 43 S9 30.37F WCI 19 ISLIP CLOUDY 28 12 51 S7 30.35F WCI 21 SHIRLEY CLOUDY 28 12 51 SE5 30.37F WCI 23 WESTHAMPTON CLOUDY 28 9 44 VRB5 30.38F WCI 23 MONTAUK POINT N/A 29 12 49 SE5 30.38 WCI 24 $$ NYZ052-065-067-031900- HUDSON VALLEY CITY SKY/WX TMP DP RH WIND PRES REMARKS WHITE PLAINS CLOUDY 26 5 40 SE6 30.32F WCI 19 NEWBURGH CLOUDY 27 12 54 SE14 30.32F WCI 15 MONTGOMERY CLOUDY 27 10 49 CALM 30.29F POUGHKEEPSIE CLOUDY 29 10 45 SW7 30.31F WCI 22 ALBANY CLOUDY 25 6 44 S9 30.29F WCI 15 $$ NJZ001-105-106-008-010-013-015-019>022-104-031900- NEW JERSEY CITY SKY/WX TMP DP RH WIND PRES REMARKS NEWARK/LIBERTY CLOUDY 31 16 54 SE8 30.37F WCI 23 TETERBORO CLOUDY 30 14 51 SW12 30.36F WCI 20 CALDWELL CLOUDY 29 13 51 SW9 30.35F WCI 20 MORRISTOWN CLOUDY 28 14 54 S10 30.37F WCI 19 SOMERVILLE CLOUDY 30 12 47 SE7 30.32F WCI 23 SUSSEX CLOUDY 28 10 46 S10G17 30.30F WCI 19 ANDOVER N/A 26 11 52 S9 30.29F WCI 17 TRENTON CLOUDY 30 13 49 S9 30.33F WCI 22 MILLVILLE CLOUDY 33 12 41 S7 30.35F WCI 27 ATLANTIC CITY PTSUNNY 33 19 56 S8 30.36 WCI 26 WRIGHTSTOWN CLOUDY 34 15 46 S10 30.31F WCI 26 TOMS RIVER PTSUNNY 34 18 51 S9 30.36F WCI 26 BELMAR CLOUDY 30 16 55 S10 30.35F WCI 21 $$ PAZ047>061-062-071-031900- EASTERN PENNSYLVANIA CITY SKY/WX TMP DP RH WIND PRES REMARKS PHILADELPHIA CLOUDY 32 12 43 S7 30.34F WCI 26 ALLENTOWN LGT SNOW 27 16 63 S9 30.30F WCI 17 SCRANTON CLOUDY 27 6 41 SW9 30.21F WCI 18 $$ CTZ002-004>006-009-010-012-RIZ004-006-007-MAZ004-011-015-031900- SOUTHERN NEW ENGLAND IN CT CITY SKY/WX TMP DP RH WIND PRES REMARKS BRADLEY INTL CLOUDY 28 6 39 SE6 30.33F WCI 22 HARTFORD CLOUDY 28 6 39 S3 30.35F DANBURY CLOUDY 28 5 37 S6 30.32F WCI 22 WTRBRY/OXFORD CLOUDY 27 5 39 S8 30.32F WCI 18 BRIDGEPORT CLOUDY 26 12 55 SW6 30.37F WCI 19 MERIDEN CLOUDY 28 5 37 CALM 30.35F NEW HAVEN CLOUDY 27 9 46 S5 30.36F WCI 22 CHESTER FAIR 28 9 43 SE5 30.34F WCI 23 GROTON CLOUDY 25 10 53 S5 30.36F WCI 19 WILLIMANTIC CLOUDY 29 4 34 S6 30.34F WCI 23 IN RI CITY SKY/WX TMP DP RH WIND PRES REMARKS PROVIDENCE CLOUDY 29 9 43 S9 30.36F WCI 20 BLOCK ISLAND CLOUDY 27 12 54 S5 30.36F WCI 21 WESTERLY CLOUDY 27 9 46 S5 30.37F WCI 22 IN MA CITY SKY/WX TMP DP RH WIND PRES REMARKS BOSTON CLOUDY 30 2 30 W5 30.34F WCI 25 WORCESTER CLOUDY 25 3 38 SW8 30.27F WCI 16 WESTFIELD CLOUDY 27 5 39 S8 30.31F WCI 19 PROVINCETOWN PTSUNNY 27 7 43 W5 30.37F WCI 21 NANTUCKET PTSUNNY 27 4 37 SW12 30.38F WCI 17 $$ ANZ330-335-338-340-345-350-353-355-031900- COASTAL MARINE OBSERVATIONS STATION/POSITION TIME SKY/WX TEMP WIND PRES VSBY WAVE AIR SEA DIR/SP/G HT/PER (UTC) (F) (DEG/KT/KT) (MB) (MI) (FT/S) NY HARB ENTRANCE 1800 30 38 170/ 10/ 12 1028.6 1/ 9 4S FIRE IS 1700 33 N/A 1/10 20S FIRE ISLAND 1700 36 1030.5 1/ 9 23SW MTP 1800 N/A 1/ 8 HUDSON CANYON NOT AVBL EXECUTION ROCKS NOT AVBL WESTERN LI SOUND NOT AVBL CENTRAL LI SOUND NOT AVBL EASTERN LI SOUND NOT AVBL ROBBINS REEF 1800 28 160/ 9/ 11 1027.3 $$ >>>>>>>>>>>>>>>>>>>>>>>>>>>> KEY <<<<<<<<<<<<<<<<<<<<<<<<<<< > < > SKY/WX - SKY CONDITION/PRESENT WEATHER < > TMP - TEMPERATURE IN FAHRENHEIT < > DP - DEWPOINT IN FAHRENHEIT < > RH - RELATIVE HUMIDITY IN PERCENT < > WIND - DIRECTION AND SPEED IN MPH < > PRES - MEAN SEA LEVEL PRESSURE IN INCHES OF HG < > WCI - WIND CHILL INDEX < > VSB - VISIBILITY IN MILES < > HX - HEAT INDEX < > TC - TEMPERATURE IN CELSIUS < > VRB - VARIABLE WIND DIRECTION < > < >>>>>>>>>>>>>>>>>>>>>>>>>>>> KEY <<<<<<<<<<<<<<<<<<<<<<<<<<<

USA.gov is the U.S. government's official web portal to all federal, state and local government web resources and services.